Time,TemperatureF,DewpointF,PressureIn,WindDirection,WindDirectionDegrees,WindSpeedMPH,WindSpeedGustMPH,Humidity,HourlyPrecipIn,Conditions,Clouds,dailyrainin,SolarRadiationWatts/m^2,SoftwareType,DateUTC
2013-06-29 00:01:00,54.0,53.0,-100.00,South,182,0.0,0.0,97,0.00,,,0.00,2.000000,,2013-06-29 08:01:00,
2013-06-29 00:11:00,54.0,53.0,-100.00,South,182,0.0,0.0,97,0.00,,,0.00,2.000000,,2013-06-29 08:11:00,
2013-06-29 00:21:00,54.0,53.0,-100.00,South,182,0.0,0.0,97,0.00,,,0.00,2.000000,,2013-06-29 08:21:00,
2013-06-29 00:52:00,53.0,52.0,-100.00,ESE,111,0.0,0.0,98,0.00,,,0.00,0.000000,,2013-06-29 08:52:00,
2013-06-29 01:02:00,53.0,52.0,-100.00,ESE,111,0.0,0.0,98,0.00,,,0.00,0.000000,,2013-06-29 09:02:00,
2013-06-29 01:12:00,53.0,52.0,-100.00,ESE,111,0.0,0.0,98,0.00,,,0.00,0.000000,,2013-06-29 09:12:00,
2013-06-29 01:22:00,53.0,52.0,-100.00,ESE,111,0.0,0.0,98,0.00,,,0.00,0.000000,,2013-06-29 09:22:00,
2013-06-29 01:53:00,52.0,52.0,-100.00,SE,144,0.0,0.0,99,0.00,,,0.00,0.000000,,2013-06-29 09:53:00,
2013-06-29 02:01:00,52.0,52.0,-100.00,SE,144,0.0,0.0,99,0.00,,,0.00,0.000000,,2013-06-29 10:01:00,
2013-06-29 02:11:00,52.0,52.0,-100.00,SE,144,0.0,0.0,99,0.00,,,0.00,0.000000,,2013-06-29 10:11:00,
2013-06-29 02:22:00,52.0,52.0,-100.00,SE,144,0.0,0.0,99,0.00,,,0.00,0.000000,,2013-06-29 10:22:00,
2013-06-29 02:53:00,52.0,52.0,-100.00,SSE,150,0.0,0.0,100,0.00,,,0.00,0.000000,,2013-06-29 10:53:00,
2013-06-29 03:01:00,52.0,52.0,-100.00,SSE,150,0.0,0.0,100,0.00,,,0.00,0.000000,,2013-06-29 11:01:00,
2013-06-29 03:11:00,52.0,52.0,-100.00,SSE,150,0.0,0.0,100,0.00,,,0.00,0.000000,,2013-06-29 11:11:00,
2013-06-29 03:23:00,52.0,52.0,-100.00,SSE,150,0.0,0.0,100,0.00,,,0.00,0.000000,,2013-06-29 11:23:00,
2013-06-29 03:53:00,52.0,52.0,-100.00,SE,134,0.0,0.0,100,0.00,,,0.00,0.000000,,2013-06-29 11:53:00,
2013-06-29 04:02:00,52.0,52.0,-100.00,SE,134,0.0,0.0,100,0.00,,,0.00,0.000000,,2013-06-29 12:02:00,
2013-06-29 04:11:00,52.0,52.0,-100.00,SE,134,0.0,0.0,100,0.00,,,0.00,0.000000,,2013-06-29 12:11:00,
2013-06-29 04:22:00,52.0,52.0,-100.00,SE,134,0.0,0.0,100,0.00,,,0.00,0.000000,,2013-06-29 12:22:00,
2013-06-29 04:53:00,52.0,52.0,-100.00,South,188,0.0,0.0,100,0.00,,,0.00,0.000000,,2013-06-29 12:53:00,
2013-06-29 05:02:00,52.0,52.0,-100.00,South,188,0.0,0.0,100,0.00,,,0.00,0.000000,,2013-06-29 13:02:00,
2013-06-29 05:11:00,52.0,52.0,-100.00,South,188,0.0,0.0,100,0.00,,,0.00,0.000000,,2013-06-29 13:11:00,
2013-06-29 05:23:00,52.0,52.0,-100.00,South,188,0.0,0.0,100,0.00,,,0.00,0.000000,,2013-06-29 13:23:00,
2013-06-29 05:53:00,52.0,52.0,-100.00,SSE,150,0.0,0.0,100,0.00,,,0.00,3.000000,,2013-06-29 13:53:00,
2013-06-29 06:02:00,52.0,52.0,-100.00,SSE,150,0.0,0.0,100,0.00,,,0.00,3.000000,,2013-06-29 14:02:00,
2013-06-29 06:12:00,52.0,52.0,-100.00,SSE,150,0.0,0.0,100,0.00,,,0.00,3.000000,,2013-06-29 14:12:00,
2013-06-29 06:23:00,52.0,52.0,-100.00,SSE,150,0.0,0.0,100,0.00,,,0.00,3.000000,,2013-06-29 14:23:00,
2013-06-29 06:53:00,53.0,53.0,-100.00,ESE,122,1.0,2.0,100,0.00,,,0.00,10.000000,,2013-06-29 14:53:00,
2013-06-29 07:01:00,53.0,53.0,-100.00,ESE,122,1.0,2.0,100,0.00,,,0.00,10.000000,,2013-06-29 15:01:00,
2013-06-29 07:11:00,53.0,53.0,-100.00,ESE,122,1.0,2.0,100,0.00,,,0.00,10.000000,,2013-06-29 15:11:00,
2013-06-29 07:22:00,53.0,53.0,-100.00,ESE,122,1.0,2.0,100,0.00,,,0.00,10.000000,,2013-06-29 15:22:00,
2013-06-29 07:53:00,53.0,53.0,-100.00,NNE,18,0.0,1.0,100,0.00,,,0.00,20.000000,,2013-06-29 15:53:00,
2013-06-29 08:01:00,53.0,53.0,-100.00,NNE,18,0.0,1.0,100,0.00,,,0.00,20.000000,,2013-06-29 16:01:00,
2013-06-29 08:12:00,53.0,53.0,-100.00,NNE,18,0.0,1.0,100,0.00,,,0.00,20.000000,,2013-06-29 16:12:00,
2013-06-29 08:22:00,53.0,53.0,-100.00,NNE,18,0.0,1.0,100,0.00,,,0.00,20.000000,,2013-06-29 16:22:00,
2013-06-29 08:53:00,55.0,55.0,-100.00,SW,216,1.0,1.0,100,0.00,,,0.00,32.000000,,2013-06-29 16:53:00,
2013-06-29 09:01:00,55.0,55.0,-100.00,SW,216,1.0,1.0,100,0.00,,,0.00,32.000000,,2013-06-29 17:01:00,
2013-06-29 09:11:00,55.0,55.0,-100.00,SW,216,1.0,1.0,100,0.00,,,0.00,32.000000,,2013-06-29 17:11:00,
2013-06-29 09:22:00,55.0,55.0,-100.00,SW,216,1.0,1.0,100,0.00,,,0.00,32.000000,,2013-06-29 17:22:00,
2013-06-29 09:53:00,56.0,53.0,-100.00,SW,220,0.0,1.0,91,0.00,,,0.00,58.000000,,2013-06-29 17:53:00,
2013-06-29 10:01:00,56.0,53.0,-100.00,SW,220,0.0,1.0,91,0.00,,,0.00,58.000000,,2013-06-29 18:01:00,
2013-06-29 10:11:00,56.0,53.0,-100.00,SW,220,0.0,1.0,91,0.00,,,0.00,58.000000,,2013-06-29 18:11:00,
2013-06-29 10:22:00,56.0,53.0,-100.00,SW,220,0.0,1.0,91,0.00,,,0.00,58.000000,,2013-06-29 18:22:00,
2013-06-29 10:53:00,58.0,55.0,-100.00,NW,323,2.0,4.0,89,0.00,,,0.00,115.000000,,2013-06-29 18:53:00,
2013-06-29 11:01:00,58.0,55.0,-100.00,NW,323,2.0,4.0,89,0.00,,,0.00,115.000000,,2013-06-29 19:01:00,
2013-06-29 11:12:00,58.0,55.0,-100.00,NW,323,2.0,4.0,89,0.00,,,0.00,115.000000,,2013-06-29 19:12:00,
2013-06-29 11:22:00,58.0,55.0,-100.00,NW,323,2.0,4.0,89,0.00,,,0.00,115.000000,,2013-06-29 19:22:00,
2013-06-29 11:54:00,60.0,54.0,-100.00,NW,312,2.0,5.0,80,0.00,,,0.00,235.000000,,2013-06-29 19:54:00,
2013-06-29 12:01:00,60.0,54.0,-100.00,NW,312,2.0,5.0,80,0.00,,,0.00,235.000000,,2013-06-29 20:01:00,
2013-06-29 12:11:00,60.0,54.0,-100.00,NW,312,2.0,5.0,80,0.00,,,0.00,235.000000,,2013-06-29 20:11:00,
2013-06-29 12:23:00,60.0,54.0,-100.00,NW,312,2.0,5.0,80,0.00,,,0.00,235.000000,,2013-06-29 20:23:00,
2013-06-29 12:52:00,61.0,53.0,-100.00,NNE,16,2.0,4.0,74,0.00,,,0.00,180.000000,,2013-06-29 20:52:00,
2013-06-29 13:01:00,61.0,53.0,-100.00,NNE,16,2.0,4.0,74,0.00,,,0.00,180.000000,,2013-06-29 21:01:00,
2013-06-29 13:11:00,61.0,53.0,-100.00,NNE,16,2.0,4.0,74,0.00,,,0.00,180.000000,,2013-06-29 21:11:00,
2013-06-29 13:22:00,61.0,53.0,-100.00,NNE,16,2.0,4.0,74,0.00,,,0.00,180.000000,,2013-06-29 21:22:00,
2013-06-29 13:52:00,63.0,53.0,-100.00,ENE,65,2.0,5.0,70,0.00,,,0.00,296.000000,,2013-06-29 21:52:00,
2013-06-29 14:01:00,63.0,53.0,-100.00,ENE,65,2.0,5.0,70,0.00,,,0.00,296.000000,,2013-06-29 22:01:00,
2013-06-29 14:11:00,63.0,53.0,-100.00,ENE,65,2.0,5.0,70,0.00,,,0.00,296.000000,,2013-06-29 22:11:00,
2013-06-29 14:21:00,63.0,53.0,-100.00,ENE,65,2.0,5.0,70,0.00,,,0.00,296.000000,,2013-06-29 22:21:00,
2013-06-29 14:53:00,65.0,54.0,-100.00,East,79,2.0,6.0,68,0.00,,,0.00,324.000000,,2013-06-29 22:53:00,
2013-06-29 15:02:00,65.0,54.0,-100.00,East,79,2.0,6.0,68,0.00,,,0.00,324.000000,,2013-06-29 23:02:00,
2013-06-29 15:12:00,65.0,54.0,-100.00,East,79,2.0,6.0,68,0.00,,,0.00,324.000000,,2013-06-29 23:12:00,
2013-06-29 15:23:00,65.0,54.0,-100.00,East,79,2.0,6.0,68,0.00,,,0.00,324.000000,,2013-06-29 23:23:00,
2013-06-29 15:52:00,66.0,54.0,-100.00,WNW,287,2.0,5.0,66,0.00,,,0.00,317.000000,,2013-06-29 23:52:00,
2013-06-29 16:01:00,66.0,54.0,-100.00,WNW,287,2.0,5.0,66,0.00,,,0.00,317.000000,,2013-06-30 00:01:00,
2013-06-29 16:11:00,66.0,54.0,-100.00,WNW,287,2.0,5.0,66,0.00,,,0.00,317.000000,,2013-06-30 00:11:00,
2013-06-29 16:22:00,66.0,54.0,-100.00,WNW,287,2.0,5.0,66,0.00,,,0.00,317.000000,,2013-06-30 00:22:00,
2013-06-29 16:52:00,66.0,53.0,-100.00,North,8,2.0,5.0,64,0.00,,,0.00,323.000000,,2013-06-30 00:52:00,
2013-06-29 17:01:00,66.0,53.0,-100.00,North,8,2.0,5.0,64,0.00,,,0.00,323.000000,,2013-06-30 01:01:00,
2013-06-29 17:11:00,66.0,53.0,-100.00,North,8,2.0,5.0,64,0.00,,,0.00,323.000000,,2013-06-30 01:11:00,
2013-06-29 17:22:00,66.0,53.0,-100.00,North,8,2.0,5.0,64,0.00,,,0.00,323.000000,,2013-06-30 01:22:00,
2013-06-29 17:53:00,67.0,54.0,-100.00,WNW,296,1.0,6.0,63,0.00,,,0.00,282.000000,,2013-06-30 01:53:00,
2013-06-29 18:02:00,67.0,54.0,-100.00,WNW,296,1.0,6.0,63,0.00,,,0.00,282.000000,,2013-06-30 02:02:00,
2013-06-29 18:11:00,67.0,54.0,-100.00,WNW,296,1.0,6.0,63,0.00,,,0.00,282.000000,,2013-06-30 02:11:00,
2013-06-29 18:23:00,67.0,54.0,-100.00,WNW,296,1.0,6.0,63,0.00,,,0.00,282.000000,,2013-06-30 02:23:00,
2013-06-29 18:53:00,66.0,54.0,-100.00,NW,308,2.0,5.0,66,0.00,,,0.00,197.000000,,2013-06-30 02:53:00,
2013-06-29 19:01:00,66.0,54.0,-100.00,NW,308,2.0,5.0,66,0.00,,,0.00,197.000000,,2013-06-30 03:01:00,
2013-06-29 19:11:00,66.0,54.0,-100.00,NW,308,2.0,5.0,66,0.00,,,0.00,197.000000,,2013-06-30 03:11:00,
2013-06-29 19:23:00,66.0,54.0,-100.00,NW,308,2.0,5.0,66,0.00,,,0.00,197.000000,,2013-06-30 03:23:00,
2013-06-29 19:53:00,66.0,55.0,-100.00,SW,223,1.0,4.0,67,0.00,,,0.00,131.000000,,2013-06-30 03:53:00,
2013-06-29 20:01:00,66.0,55.0,-100.00,SW,223,1.0,4.0,67,0.00,,,0.00,131.000000,,2013-06-30 04:01:00,
2013-06-29 20:12:00,66.0,55.0,-100.00,SW,223,1.0,4.0,67,0.00,,,0.00,131.000000,,2013-06-30 04:12:00,
2013-06-29 20:22:00,66.0,55.0,-100.00,SW,223,1.0,4.0,67,0.00,,,0.00,131.000000,,2013-06-30 04:22:00,
2013-06-29 20:53:00,64.0,54.0,-100.00,SSW,213,0.0,2.0,71,0.00,,,0.00,68.000000,,2013-06-30 04:53:00,
2013-06-29 21:02:00,64.0,54.0,-100.00,SSW,213,0.0,2.0,71,0.00,,,0.00,68.000000,,2013-06-30 05:02:00,
2013-06-29 21:12:00,64.0,54.0,-100.00,SSW,213,0.0,2.0,71,0.00,,,0.00,68.000000,,2013-06-30 05:12:00,
2013-06-29 21:22:00,64.0,54.0,-100.00,SSW,213,0.0,2.0,71,0.00,,,0.00,68.000000,,2013-06-30 05:22:00,
2013-06-29 21:53:00,61.0,56.0,-100.00,SSE,160,0.0,1.0,84,0.00,,,0.00,25.000000,,2013-06-30 05:53:00,
2013-06-29 22:02:00,61.0,56.0,-100.00,SSE,160,0.0,1.0,84,0.00,,,0.00,25.000000,,2013-06-30 06:02:00,
2013-06-29 22:12:00,61.0,56.0,-100.00,SSE,160,0.0,1.0,84,0.00,,,0.00,25.000000,,2013-06-30 06:12:00,
2013-06-29 22:23:00,61.0,56.0,-100.00,SSE,160,0.0,1.0,84,0.00,,,0.00,25.000000,,2013-06-30 06:23:00,
2013-06-29 22:53:00,60.0,56.0,-100.00,SSW,208,0.0,0.0,88,0.00,,,0.00,17.000000,,2013-06-30 06:53:00,
2013-06-29 23:02:00,60.0,56.0,-100.00,SSW,208,0.0,0.0,88,0.00,,,0.00,17.000000,,2013-06-30 07:02:00,
2013-06-29 23:12:00,60.0,56.0,-100.00,SSW,208,0.0,0.0,88,0.00,,,0.00,17.000000,,2013-06-30 07:12:00,
2013-06-29 23:22:00,60.0,56.0,-100.00,SSW,208,0.0,0.0,88,0.00,,,0.00,17.000000,,2013-06-30 07:22:00,
2013-06-29 23:53:00,58.0,56.0,-100.00,SSE,150,0.0,2.0,93,0.00,,,0.00,4.000000,,2013-06-30 07:53:00,